Regional Weather Roundup
Issued by NWS Wakefield, VA

Home | Current Version | Previous Version | Graphics & Text | Print | Product List | Glossary On
Versions: 1 2 3 4 5 6 7 8 9 10 11 12 13 14 15 16 17 18 19 20 21 22 23 24 25 26 27 28 29 30 31 32 33 34 35 36 37 38 39 40 41 42 43 44 45 46 47 48 49 50
000
ASUS41 KAKQ 290610
RWRAKQ

REGIONAL WEATHER ROUNDUP
NATIONAL WEATHER SERVICE WAKEFIELD VA
200 AM EDT TUE JUL 29 2014

Note: "fair" indicates few or no clouds below 12,000 feet with no
significant weather and/or obstructions to visibility. * = Denotes
station may not report precipitation (e.g., rain,snow,etc.),
thunder or fog.

VAZ042-051-052>054-056-290700-
NORTHERN VIRGINIA

CITY           SKY/WX    TMP DP  RH WIND       PRES   REMARKS
WASH NATIONAL  CLEAR     70  57  63 NW9       29.85R
DULLES         CLEAR     64  56  75 NW12      29.85S
FORT BELVOIR   CLEAR     67  58  71 NW6       29.86R
QUANTICO       CLEAR     67  56  67 NW7       29.86R
FREDERICKSBRG* CLEAR     68  58  69 NW5       29.86R
STAFFORD*      CLEAR     63  58  83 CALM      29.90R
WARRENTON      CLEAR     65  61  87 NW6       29.86R
CULPEPER*      CLEAR    N/A N/A N/A CALM      29.87R
MANASSAS*      NOT AVBL
LEESBURG*      CLEAR     64  59  82 NW9       29.87R
WINCHESTER     CLEAR     63  52  67 CALM      29.90R
$$

VAZ048-049-060>072-079>083-290700-
CENTRAL AND SOUTH CENTRAL VIRGINIA...AND NORTH CENTRAL NORTH CAROLINA

CITY           SKY/WX    TMP DP  RH WIND       PRES   REMARKS
RICHMOND       CLEAR     70  57  63 NW9       29.86R
CHESTERFIELD*  CLEAR    N/A N/A N/A N3        29.87S
HANOVER        CLEAR     65  57  75 NW6       29.88R
TAPPAHANNOCK*  CLEAR     68  55  62 CALM      29.86S
CHARLOTTSVILLE CLEAR     62  54  74 NW3       29.89S
ORANGE*        CLEAR     59  55  88 CALM      29.90R
LOUISA*        CLEAR     64  55  72 NW6       29.87S
FARMVILLE*     CLEAR     64  55  72 CALM      29.87R
SOUTH HILL*    CLEAR     68  57  68 CALM      29.92S
ROANOKE RAPIDS NOT AVBL
RALEIGH        PTCLDY    69  57  65 CALM      29.88S
$$

VAZ088>098-290700-
SOUTHEAST VIRGINIA

CITY           SKY/WX    TMP DP  RH WIND       PRES   REMARKS
NORFOLK        CLEAR     74  58  57 NW10G17   29.83R
VIRGINIA BEACH CLEAR     74  59  59 NW17      29.82R
NORFOLK NAVAL  CLEAR     74  57  55 NW13      29.84S
WEST POINT*    CLEAR     71  58  62 NW5       29.85S
NEWPORT NEWS   CLEAR     75  58  55 N10       29.83S
LANGLEY AFB    CLEAR     72  58  62 NW13G20   29.83R
FORT EUSTIS    CLEAR     72  58  60 N7        29.82R
WILLIAMSBURG*  CLEAR     72  61  68 N6        29.85R
FRANKLIN*      CLEAR     68  57  68 CALM      29.84S
WAKEFIELD      CLEAR     65  59  81 CALM      29.85R
$$

VAZ020-022-025-037-045-290700-
WESTERN AND SOUTHWEST VIRGINIA

CITY           SKY/WX    TMP DP  RH WIND       PRES   REMARKS
STAUNTON*      CLEAR     57  53  85 CALM      29.94S
HOT SPRINGS VA CLOUDY    51  50  96 NW8       30.01F FOG
LYNCHBURG      CLEAR     61  57  87 NW3       29.92S
DANVILLE       CLEAR     64  57  78 W6        29.90F
MARTINSVILLE   CLEAR     63  56  78 W3        29.93F
ROANOKE        CLEAR     61  54  77 CALM      29.95S
BLACKSBURG     MOCLDY    61  59  94 CALM      30.00S
DUBLIN*        PTCLDY    61  57  86 W3        29.99F
MARION*        CLOUDY   N/A N/A N/A W7        30.03F
HILLSVILLE*    CLEAR     59  53  81 NW8       29.99F
RICHLANDS*     CLOUDY    62  59  89 W6        30.03S
WISE*          CLOUDY    59  59 100 W3        30.05S
ABINGDON*      PTCLDY    63  57  83 NW5       30.02S
$$

MDZ021>025-VAZ099-100-290700-
SOUTHERN MARYLAND AND THE DELMARVA PENINSULA

CITY           SKY/WX    TMP DP  RH WIND       PRES   REMARKS
PATUXENT RIVER CLEAR     69  59  70 NW12      29.83R
BAY BRIDGE APT   N/A     70  59  68 NW9       29.83R
LEONARDTOWN    CLEAR     64  57  77 CALM      29.86R
DOVER          CLEAR     68  62  80 NW13      29.79R
GEORGETOWN     CLEAR     69  60  73 VRB6      29.81R
EASTON         CLEAR     71  61  70 N7        29.86R
CAMBRIDGE      CLEAR     72  57  60 NW10      29.81S
SALISBURY      NOT AVBL
OCEAN CITY     PTCLDY    68  61  78 NW7       29.80R
WALLOPS ISLAND CLEAR     71  61  70 N6        29.81S
ACCOMACK*        N/A     72  59  64 NW7       29.81S
$$

NCZ012>017-030>032-290700-
EASTERN NORTH CAROLINA

CITY           SKY/WX    TMP DP  RH WIND       PRES   REMARKS
ELIZABETH CITY CLEAR     69  61  75 NW7       29.83R
AHOSKIE*       CLEAR     67  60  76 CALM      29.85R
EDENTON*       CLEAR     71  62  74 N3        29.84R
CURRITUCK*     CLEAR     70  58  66 W3        29.84R
KILL DEVIL HLS CLEAR     76  61  61 CALM      29.81S
MANTEO         NOT AVBL
CAPE HATTERAS  MOCLDY    80  65  59 VRB6      29.82S
GOLDSBORO      CLEAR     73  64  72 N7        29.83S
WASHINGTON     CLEAR     71  62  72 NW5       29.83F
GREENVILLE     CLEAR     70  61  73 N3        29.87S
NEW BERN       CLEAR     73  66  78 N5        29.84S
WILMINGTON     CLEAR     73  70  90 N3        29.83R
$$

VAZ048-290700-
ELSEWHERE

CITY           SKY/WX    TMP DP  RH WIND       PRES   REMARKS
HARRISBURG PA  PTCLDY    64  55  72 NW7       29.83S
BALTIMORE      CLEAR     65  58  78 W6        29.83R
ANNAPOLIS      CLEAR     68  60  75 W8        29.83R
ANDREWS AFB    CLEAR     68  58  71 NW9       29.84R
WILMINGTON DE  CLEAR     65  59  81 NW5       29.82R
PHILADELPHIA   CLEAR     68  55  63 NW7       29.80R
WILDWOOD NJ*   PTCLDY    70  57  64 NW7       29.80R
ATLANTIC CITY  CLEAR     65  59  81 NW7       29.77R
HENDERSON NC   CLEAR     67  55  64 NW6       29.89S
GREENSBORO     PTCLDY    66  56  70 CALM      29.91F
ROCKY MOUNT    CLEAR     71  58  63 N8        29.85S
FAYETTEVILLE   PTCLDY    77  58  51 N12       29.85F
CHARLOTTE      MOCLDY    71  54  54 N9        29.92S
$$

VAZ100-290700-
MARINE

STATION/POSITION TIME  TEMP    WIND        PRES    WAVE   SWELL
                       AIR SEA DIR/SP/G            HT/PER HT/PER
                 (UTC) (F)     (DEG/KT/KT) (MB)    (FT/S) (FT/S)
44066 TX TWR #4  0600   72 74  300/ 17/ 19 1006.2R   6/ 7   3/ 8
CAPE MAY NJ      0600   71 78  330/ 10/ 18 1008.4R
LEWES DE         0600   71 73  340/ 17/ 21 1008.8R
15NM E FENWICK I 0600   72 73              1008.5R   3/ 7
OCEAN-CITY-INLET 0600   70 68  330/  8/ 10 1008.8S
WACHAPREAGUE VA  0600   73 80  300/  1/  7 1009.2S
THOMAS POINT MD  0600   69 78  330/ 10/ 11 1010.5R
GOOSES REEF MD   0600   72     340/ 16/ 19 1010.3R
COVE POINT MD    0600   71     330/ 10/ 16 1009.9R
SOLOMONS ISLAND  0600      80                N/A
BISHOPS HEAD MD  0600   71 74  320/  8/ 11 1009.3R
PINEY POINT MD   0600          340/ 22/ 24   N/A
POTOMAC MD       0600   73     340/ 17/ 21 1009.3S
CAMBRIDGE MD     0600   73 79  320/ 11/ 15 1009.4R
LEWISETTA VA     0600   72 79  330/ 12/ 18 1009.9S
RAPPAHANNOCK LGT 0600          320/ 22/ 25 1009.8F
STINGRAY PT      0600   73     320/ 14/ 17 1010.6S
YORK RVR RNG VA  0600   73     350/ 21/ 24 1009.1F
YORKTOWN VA      0600   72 80  340/ 15/ 18 1009.7F
JAMESTOWN VA     0600   71     350/  8/ 12   N/A
DOMINION TERM VA 0600   75     360/ 10/ 14 1010.1F
KIPTOPEKE VA     0600      81  360/ 17/ 23   N/A
CHES BAY BRIDGE  0600   75 78  330/ 23/ 27 1009.1R
CAPE HENRY VA    0600   75     340/ 20/ 24 1008.5R
WILLOUBY STN VA  0600          330/ 15/ 18 1009.3R
S CRANEY ISL VA  0600          320/ 10/ 14 1010.0R
CAPE HENRY BUOY  0600      77                N/A     3/ 4
1ST LANDING BUOY 0600   76     340/ 19/ 21 1009.2S
CAPE CHARLES BUO 0600      75                N/A     3/ 8
OFFSHORE WE BUOY 0600      78                N/A     3/ 4
64NM E OF VA BCH 0600   79 78  320/ 12/ 16 1009.1R   3/ 4   2/ 7
DUCK PIER NC     0600   75 63  320/  9/ 12 1009.1S
44056 DUCK FRF   0600                        N/A     2/ 8
OREGON INLET NC  0600   77 81  330/  5/  8 1009.7F
HATTERAS NC      0600   81 82  350/ 15/ 17 1010.0F
DIAMOND SHLS NC  0600          VRB  4/  4  1009.6F   4/ 7   3/ 7
CAPE LOOKOUT NC  0500   79     310/  4/  5 1009.7F
$$


USA.gov is the U.S. government's official web portal to all federal, state and local government web resources and services.